| time (UTC) | temp F | wind direction | speed knots | gust knots | rain 1hr in | rain 24hr in | rain mn in | humidity % | barometer mb |
| 20260510213959 | 47 | 346 | 5.2 | 7.8 | 0.00 | 0.00 | 0.00 | 74 | 1015.1 |
| 20260510212959 | 47 | 348 | 3.5 | 9.6 | 0.00 | 0.00 | 0.00 | 74 | 1015.0 |
| 20260510212458 | 47 | 348 | 7.0 | 9.6 | 0.00 | 0.00 | 0.00 | 73 | 1015.1 |
| 20260510211959 | 47 | 5 | 5.2 | 9.6 | 0.00 | 0.00 | 0.00 | 73 | 1015.2 |
| 20260510211459 | 47 | 360 | 7.8 | 10.4 | 0.00 | 0.00 | 0.00 | 73 | 1015.1 |
| 20260510210959 | 47 | 26 | 7.0 | 10.4 | 0.00 | 0.00 | 0.00 | 73 | 1015.1 |
| 20260510210500 | 47 | 11 | 3.5 | 13.9 | 0.00 | 0.00 | 0.00 | 73 | 1015.2 |
| 20260510210002 | 47 | 355 | 5.2 | 13.9 | 0.00 | 0.00 | 0.00 | 73 | 1015.2 |
| 20260510205458 | 47 | 10 | 7.8 | 12.2 | 0.00 | 0.00 | 0.00 | 73 | 1015.2 |
| 20260510204958 | 47 | 360 | 7.8 | 12.2 | 0.00 | 0.00 | 0.00 | 73 | 1015.2 |
| 20260510204458 | 48 | 11 | 7.0 | 11.3 | 0.00 | 0.00 | 0.00 | 73 | 1015.1 |
| 20260510203958 | 48 | 5 | 9.6 | 11.3 | 0.00 | 0.00 | 0.00 | 73 | 1015.0 |
| 20260510203457 | 48 | 15 | 7.0 | 12.2 | 0.00 | 0.00 | 0.00 | 73 | 1015.0 |
| 20260510202457 | 48 | 17 | 7.8 | 13.0 | 0.00 | 0.00 | 0.00 | 72 | 1014.9 |
| 20260510201958 | 48 | 5 | 7.8 | 12.2 | 0.00 | 0.00 | 0.00 | 72 | 1015.0 |
| 20260510201457 | 48 | 5 | 8.7 | 13.0 | 0.00 | 0.00 | 0.00 | 71 | 1015.0 |
| 20260510200458 | 49 | 36 | 7.8 | 13.0 | 0.00 | 0.00 | 0.00 | 71 | 1015.0 |
| 20260510200001 | 49 | 13 | 7.0 | 13.0 | 0.00 | 0.00 | 0.00 | 72 | 1015.1 |
| 20260510195458 | 49 | 342 | 10.4 | 13.0 | 0.00 | 0.00 | 0.00 | 72 | 1015.0 |
| 20260510194958 | 49 | 344 | 8.7 | 13.9 | 0.00 | 0.00 | 0.00 | 72 | 1014.9 |
| 20260510194458 | 50 | 14 | 8.7 | 16.5 | 0.00 | 0.00 | 0.00 | 72 | 1015.0 |
| 20260510193459 | 50 | 30 | 7.8 | 16.5 | 0.00 | 0.00 | 0.00 | 72 | 1014.7 |
| 20260510192959 | 50 | 25 | 13.0 | 16.5 | 0.00 | 0.00 | 0.00 | 72 | 1014.6 |
| 20260510192459 | 50 | 344 | 14.8 | 16.5 | 0.00 | 0.00 | 0.00 | 73 | 1014.7 |
| 20260510191458 | 51 | 17 | 12.2 | 17.4 | 0.00 | 0.00 | 0.00 | 72 | 1014.7 |
| 20260510190959 | 51 | 9 | 10.4 | 20.0 | 0.00 | 0.00 | 0.00 | 71 | 1014.6 |
| 20260510190458 | 51 | 57 | 6.1 | 20.0 | 0.00 | 0.00 | 0.00 | 71 | 1014.7 |
| 20260510185959 | 51 | 24 | 7.0 | 18.2 | 0.00 | 0.00 | 0.00 | 70 | 1014.6 |
| 20260510185459 | 52 | 355 | 9.6 | 16.5 | 0.00 | 0.00 | 0.00 | 70 | 1014.6 |
| 20260510184958 | 52 | 5 | 7.0 | 19.1 | 0.00 | 0.00 | 0.00 | 69 | 1014.6 |
| 20260510183957 | 52 | 355 | 11.3 | 15.6 | 0.00 | 0.00 | 0.00 | 70 | 1014.6 |
| 20260510182957 | 52 | 13 | 8.7 | 19.1 | 0.00 | 0.00 | 0.00 | 70 | 1014.6 |
| 20260510182457 | 52 | 37 | 13.9 | 20.0 | 0.00 | 0.00 | 0.00 | 70 | 1014.7 |
| 20260510181958 | 52 | 355 | 11.3 | 20.0 | 0.00 | 0.00 | 0.00 | 70 | 1014.7 |
| 20260510181458 | 53 | 360 | 16.5 | 20.0 | 0.00 | 0.00 | 0.00 | 69 | 1014.7 |
| 20260510180957 | 53 | 355 | 11.3 | 20.0 | 0.00 | 0.00 | 0.00 | 70 | 1014.7 |
| 20260510180458 | 53 | 349 | 11.3 | 21.7 | 0.00 | 0.00 | 0.00 | 69 | 1014.7 |
| 20260510180000 | 53 | 18 | 19.1 | 20.0 | 0.00 | 0.00 | 0.00 | 69 | 1014.6 |
| 20260510175457 | 54 | 13 | 13.9 | 17.4 | 0.00 | 0.00 | 0.00 | 69 | 1014.6 |
| 20260510174958 | 54 | 29 | 9.6 | 17.4 | 0.00 | 0.00 | 0.00 | 69 | 1014.7 |
| 20260510174458 | 54 | 11 | 13.9 | 20.9 | 0.00 | 0.00 | 0.00 | 69 | 1014.7 |
| 20260510173957 | 54 | 347 | 10.4 | 20.9 | 0.00 | 0.00 | 0.00 | 68 | 1014.7 |
| 20260510173458 | 55 | 350 | 17.4 | 20.0 | 0.00 | 0.00 | 0.00 | 68 | 1014.6 |
| 20260510172957 | 55 | 5 | 8.7 | 19.1 | 0.00 | 0.00 | 0.00 | 68 | 1014.7 |
| 20260510172457 | 55 | 345 | 17.4 | 19.1 | 0.00 | 0.00 | 0.00 | 67 | 1014.7 |
| 20260510171958 | 55 | 20 | 13.9 | 16.5 | 0.00 | 0.00 | 0.00 | 67 | 1014.6 |
| 20260510170958 | 55 | 11 | 13.0 | 14.8 | 0.00 | 0.00 | 0.00 | 68 | 1014.6 |
| 20260510170458 | 55 | 5 | 8.7 | 16.5 | 0.00 | 0.00 | 0.00 | 68 | 1014.8 |
| 20260510165500 | 55 | 34 | 12.2 | 18.2 | 0.00 | 0.00 | 0.00 | 67 | 1014.8 |
| 20260510164958 | 55 | 5 | 8.7 | 18.2 | 0.00 | 0.00 | 0.00 | 68 | 1014.8 |
| 20260510164457 | 55 | 21 | 13.9 | 18.2 | 0.00 | 0.00 | 0.00 | 68 | 1014.9 |
| 20260510162957 | 56 | 360 | 11.3 | 15.6 | 0.00 | 0.00 | 0.00 | 68 | 1015.1 |
| 20260510161457 | 56 | 17 | 9.6 | 19.1 | 0.00 | 0.00 | 0.00 | 67 | 1015.2 |
| 20260510160956 | 56 | 42 | 12.2 | 18.2 | 0.00 | 0.00 | 0.00 | 67 | 1015.2 |
| 20260510160000 | 56 | 49 | 7.8 | 18.2 | 0.00 | 0.00 | 0.00 | 67 | 1015.2 |
| 20260510155500 | 57 | 37 | 9.6 | 13.9 | 0.00 | 0.00 | 0.00 | 68 | 1015.2 |
| 20260510154958 | 56 | 46 | 9.6 | 15.6 | 0.00 | 0.00 | 0.00 | 68 | 1015.3 |
| 20260510154457 | 56 | 344 | 10.4 | 18.2 | 0.00 | 0.00 | 0.00 | 69 | 1015.3 |
| 20260510153958 | 56 | 9 | 12.2 | 21.7 | 0.00 | 0.00 | 0.00 | 68 | 1015.3 |
| 20260510153459 | 56 | 9 | 13.0 | 21.7 | 0.00 | 0.00 | 0.00 | 68 | 1015.4 |
| 20260510152957 | 56 | 11 | 15.6 | 18.2 | 0.00 | 0.00 | 0.00 | 69 | 1015.4 |
| 20260510152458 | 56 | 14 | 7.8 | 18.2 | 0.00 | 0.00 | 0.00 | 67 | 1015.5 |
| 20260510151959 | 57 | 9 | 10.4 | 16.5 | 0.00 | 0.00 | 0.00 | 67 | 1015.5 |
| 20260510151459 | 57 | 28 | 10.4 | 16.5 | 0.00 | 0.00 | 0.00 | 68 | 1015.5 |
| 20260510150959 | 56 | 11 | 9.6 | 18.2 | 0.00 | 0.00 | 0.00 | 68 | 1015.6 |
| 20260510150458 | 57 | 33 | 13.9 | 18.2 | 0.00 | 0.00 | 0.00 | 68 | 1015.5 |
| 20260510145959 | 57 | 34 | 13.9 | 18.2 | 0.00 | 0.00 | 0.00 | 69 | 1015.6 |
| 20260510145456 | 57 | 5 | 11.3 | 19.1 | 0.00 | 0.00 | 0.00 | 68 | 1015.7 |
| 20260510144957 | 57 | 19 | 14.8 | 18.2 | 0.00 | 0.00 | 0.00 | 69 | 1015.7 |
| 20260510144457 | 56 | 28 | 11.3 | 18.2 | 0.00 | 0.00 | 0.00 | 68 | 1015.7 |
| 20260510143457 | 56 | 355 | 7.0 | 17.4 | 0.00 | 0.00 | 0.00 | 67 | 1015.8 |
| 20260510141459 | 57 | 34 | 13.9 | 13.9 | 0.00 | 0.00 | 0.00 | 69 | 1016.0 |
| 20260510140957 | 57 | 29 | 10.4 | 13.9 | 0.00 | 0.00 | 0.00 | 69 | 1016.0 |
| 20260510140457 | 56 | 31 | 5.2 | 15.6 | 0.00 | 0.00 | 0.00 | 69 | 1015.9 |
| 20260510135957 | 56 | 9 | 10.4 | 13.0 | 0.00 | 0.00 | 0.00 | 69 | 1016.2 |
| 20260510135456 | 56 | 17 | 8.7 | 14.8 | 0.00 | 0.00 | 0.00 | 69 | 1016.2 |
| 20260510134957 | 56 | 41 | 10.4 | 14.8 | 0.00 | 0.00 | 0.00 | 70 | 1016.2 |
| 20260510134458 | 56 | 17 | 7.8 | 14.8 | 0.00 | 0.00 | 0.00 | 69 | 1016.2 |
| 20260510133958 | 57 | 12 | 8.7 | 14.8 | 0.00 | 0.00 | 0.00 | 70 | 1016.2 |
| 20260510133459 | 56 | 351 | 7.8 | 12.2 | 0.00 | 0.00 | 0.00 | 70 | 1016.2 |
| 20260510132958 | 56 | 9 | 7.8 | 14.8 | 0.00 | 0.00 | 0.00 | 70 | 1016.3 |
| 20260510131957 | 56 | 22 | 11.3 | 13.0 | 0.00 | 0.00 | 0.00 | 72 | 1016.5 |
| 20260510131457 | 56 | 27 | 9.6 | 13.9 | 0.00 | 0.00 | 0.00 | 71 | 1016.4 |
| 20260510130957 | 56 | 28 | 9.6 | 13.9 | 0.00 | 0.00 | 0.00 | 71 | 1016.5 |
| 20260510130457 | 56 | 30 | 13.0 | 13.9 | 0.00 | 0.00 | 0.00 | 70 | 1016.6 |
| 20260510125957 | 56 | 18 | 13.0 | 13.9 | 0.00 | 0.00 | 0.00 | 71 | 1016.5 |
| 20260510125458 | 55 | 36 | 5.2 | 15.6 | 0.00 | 0.00 | 0.00 | 71 | 1016.6 |
| 20260510124457 | 56 | 47 | 10.4 | 13.9 | 0.00 | 0.00 | 0.00 | 72 | 1016.7 |
| 20260510123457 | 56 | 14 | 11.3 | 16.5 | 0.00 | 0.00 | 0.00 | 71 | 1016.6 |
| 20260510121957 | 55 | 27 | 7.8 | 14.8 | 0.00 | 0.00 | 0.00 | 72 | 1016.8 |
| 20260510121457 | 55 | 15 | 7.0 | 13.0 | 0.00 | 0.00 | 0.00 | 72 | 1016.8 |
| 20260510120957 | 55 | 25 | 7.8 | 14.8 | 0.00 | 0.00 | 0.00 | 72 | 1016.9 |
| 20260510120457 | 55 | 24 | 9.6 | 14.8 | 0.00 | 0.00 | 0.00 | 72 | 1016.8 |
| 20260510115959 | 55 | 49 | 11.3 | 13.9 | 0.00 | 0.00 | 0.00 | 71 | 1016.8 |
| 20260510115458 | 55 | 24 | 4.3 | 13.9 | 0.00 | 0.00 | 0.00 | 71 | 1016.8 |
| 20260510114458 | 56 | 336 | 7.8 | 13.9 | 0.00 | 0.00 | 0.00 | 71 | 1016.9 |
| 20260510113958 | 56 | 57 | 6.1 | 14.8 | 0.00 | 0.00 | 0.00 | 72 | 1017.0 |
| 20260510113457 | 55 | 51 | 7.8 | 16.5 | 0.00 | 0.00 | 0.00 | 71 | 1017.1 |
| 20260510112957 | 55 | 44 | 11.3 | 18.2 | 0.00 | 0.00 | 0.00 | 72 | 1017.0 |
| 20260510111956 | 55 | 35 | 11.3 | 14.8 | 0.00 | 0.00 | 0.00 | 74 | 1017.0 |
| 20260510111457 | 55 | 22 | 5.2 | 14.8 | 0.00 | 0.00 | 0.00 | 73 | 1017.2 |
| 20260510110958 | 55 | 24 | 9.6 | 14.8 | 0.00 | 0.00 | 0.00 | 73 | 1017.3 |
| 20260510110458 | 55 | 56 | 12.2 | 13.0 | 0.00 | 0.00 | 0.00 | 74 | 1017.3 |
| 20260510105957 | 54 | 5 | 10.4 | 15.6 | 0.00 | 0.00 | 0.00 | 74 | 1017.3 |
| 20260510105456 | 54 | 54 | 8.7 | 15.6 | 0.00 | 0.00 | 0.00 | 73 | 1017.4 |
| 20260510104957 | 54 | 35 | 6.1 | 14.8 | 0.00 | 0.00 | 0.00 | 74 | 1017.4 |
| 20260510104458 | 54 | 35 | 13.9 | 14.8 | 0.00 | 0.00 | 0.00 | 73 | 1017.4 |
| 20260510103958 | 54 | 53 | 11.3 | 14.8 | 0.00 | 0.00 | 0.00 | 74 | 1017.4 |
| 20260510103457 | 54 | 24 | 8.7 | 13.9 | 0.00 | 0.00 | 0.00 | 75 | 1017.4 |
| 20260510102956 | 54 | 14 | 10.4 | 13.9 | 0.00 | 0.00 | 0.00 | 74 | 1017.5 |
| 20260510102459 | 54 | 14 | 11.3 | 13.9 | 0.00 | 0.00 | 0.00 | 74 | 1017.6 |
| 20260510101957 | 54 | 21 | 3.5 | 15.6 | 0.00 | 0.00 | 0.00 | 74 | 1017.7 |
| 20260510101457 | 54 | 57 | 11.3 | 15.6 | 0.00 | 0.00 | 0.00 | 74 | 1017.7 |
| 20260510100958 | 54 | 27 | 11.3 | 13.9 | 0.00 | 0.00 | 0.00 | 74 | 1017.7 |
| 20260510100457 | 54 | 44 | 6.1 | 14.8 | 0.00 | 0.00 | 0.00 | 74 | 1017.8 |
| 20260510095457 | 55 | 26 | 3.5 | 12.2 | 0.00 | 0.00 | 0.00 | 75 | 1017.7 |
| 20260510093957 | 53 | 24 | 7.8 | 12.2 | 0.00 | 0.00 | 0.00 | 77 | 1017.7 |
| 20260510093457 | 53 | 41 | 3.5 | 12.2 | 0.00 | 0.00 | 0.00 | 77 | 1017.8 |
| 20260510092957 | 52 | 73 | 6.1 | 13.9 | 0.00 | 0.00 | 0.00 | 77 | 1017.7 |
| 20260510092457 | 52 | 30 | 4.3 | 11.3 | 0.00 | 0.00 | 0.00 | 77 | 1017.7 |
| 20260510091956 | 52 | 88 | 7.8 | 11.3 | 0.00 | 0.00 | 0.00 | 78 | 1017.9 |
| 20260510090957 | 52 | 16 | 4.3 | 15.6 | 0.00 | 0.00 | 0.00 | 78 | 1017.7 |
| 20260510090457 | 51 | 89 | 7.0 | 15.6 | 0.00 | 0.00 | 0.00 | 78 | 1017.7 |
| 20260510085959 | 51 | 51 | 4.3 | 13.0 | 0.00 | 0.00 | 0.00 | 78 | 1017.8 |
| 20260510084959 | 51 | 32 | 7.0 | 13.9 | 0.00 | 0.00 | 0.00 | 78 | 1017.9 |
| 20260510084458 | 51 | 9 | 9.6 | 13.9 | 0.00 | 0.00 | 0.00 | 78 | 1017.9 |
| 20260510083459 | 51 | 54 | 10.4 | 14.8 | 0.00 | 0.00 | 0.00 | 78 | 1017.9 |
| 20260510082959 | 51 | 5 | 5.2 | 12.2 | 0.00 | 0.00 | 0.00 | 79 | 1017.9 |
| 20260510081959 | 51 | 35 | 9.6 | 13.0 | 0.00 | 0.00 | 0.00 | 79 | 1017.8 |
| 20260510081458 | 51 | 27 | 3.5 | 12.2 | 0.00 | 0.00 | 0.00 | 79 | 1017.8 |
| 20260510080959 | 51 | 19 | 7.0 | 13.9 | 0.00 | 0.00 | 0.00 | 79 | 1017.8 |
| 20260510080458 | 51 | 44 | 10.4 | 13.9 | 0.00 | 0.00 | 0.00 | 79 | 1017.8 |
| 20260510080001 | 51 | 59 | 4.3 | 13.9 | 0.00 | 0.00 | 0.00 | 79 | 1017.8 |
| 20260510075458 | 51 | 36 | 9.6 | 13.9 | 0.00 | 0.00 | 0.00 | 79 | 1017.8 |
| 20260510074958 | 51 | 20 | 8.7 | 13.9 | 0.00 | 0.00 | 0.00 | 79 | 1017.8 |
| 20260510074459 | 51 | 23 | 7.8 | 13.9 | 0.00 | 0.00 | 0.00 | 79 | 1017.7 |
| 20260510073959 | 51 | 61 | 7.8 | 13.0 | 0.00 | 0.00 | 0.00 | 79 | 1017.8 |
| 20260510073459 | 51 | 35 | 9.6 | 13.0 | 0.00 | 0.00 | 0.00 | 79 | 1017.7 |
| 20260510072958 | 52 | 31 | 8.7 | 13.9 | 0.00 | 0.00 | 0.00 | 79 | 1017.5 |
| 20260510072459 | 52 | 32 | 11.3 | 13.9 | 0.00 | 0.00 | 0.00 | 80 | 1017.5 |
| 20260510071958 | 51 | 20 | 7.8 | 13.9 | 0.00 | 0.00 | 0.00 | 80 | 1017.5 |
| 20260510070958 | 51 | 55 | 12.2 | 13.0 | 0.00 | 0.00 | 0.00 | 80 | 1017.6 |
| 20260510070458 | 51 | 21 | 7.0 | 13.0 | 0.00 | 0.00 | 0.00 | 80 | 1017.6 |
| 20260510065956 | 51 | 44 | 13.0 | 14.8 | 0.00 | 0.00 | 0.00 | 80 | 1017.7 |
| 20260510065457 | 51 | 41 | 8.7 | 12.2 | 0.00 | 0.00 | 0.00 | 81 | 1017.6 |
| 20260510064956 | 51 | 57 | 6.1 | 10.4 | 0.00 | 0.00 | 0.00 | 81 | 1017.5 |
| 20260510064457 | 50 | 44 | 6.1 | 11.3 | 0.00 | 0.00 | 0.00 | 81 | 1017.5 |
| 20260510063457 | 50 | 39 | 6.1 | 12.2 | 0.00 | 0.00 | 0.00 | 81 | 1017.3 |
| 20260510061957 | 50 | 28 | 7.0 | 13.0 | 0.00 | 0.00 | 0.00 | 82 | 1017.3 |
| 20260510061457 | 49 | 33 | 9.6 | 13.9 | 0.00 | 0.00 | 0.00 | 82 | 1017.3 |
| 20260510060456 | 50 | 20 | 7.0 | 10.4 | 0.00 | 0.00 | 0.00 | 82 | 1017.3 |
| 20260510060001 | 50 | 5 | 3.5 | 9.6 | 0.00 | 0.00 | 0.00 | 82 | 1017.3 |
| 20260510055459 | 50 | 55 | 6.1 | 9.6 | 0.00 | 0.00 | 0.00 | 82 | 1017.2 |
| 20260510054959 | 50 | 24 | 7.0 | 8.7 | 0.00 | 0.00 | 0.00 | 82 | 1017.3 |
| 20260510054458 | 50 | 5 | 4.3 | 9.6 | 0.00 | 0.00 | 0.00 | 82 | 1017.2 |
| 20260510052958 | 50 | 5 | 4.3 | 8.7 | 0.00 | 0.00 | 0.00 | 82 | 1017.0 |
| 20260510052458 | 50 | 27 | 4.3 | 8.7 | 0.00 | 0.00 | 0.00 | 82 | 1017.1 |
| 20260510051957 | 49 | 21 | 7.0 | 9.6 | 0.00 | 0.00 | 0.00 | 82 | 1017.2 |
| 20260510051457 | 49 | 355 | 7.8 | 10.4 | 0.00 | 0.00 | 0.00 | 82 | 1017.1 |
| 20260510050958 | 49 | 29 | 8.7 | 10.4 | 0.00 | 0.00 | 0.00 | 82 | 1017.1 |
| 20260510045959 | 49 | 346 | 7.0 | 9.6 | 0.00 | 0.00 | 0.00 | 82 | 1017.3 |
| 20260510045459 | 49 | 22 | 5.2 | 9.6 | 0.00 | 0.00 | 0.00 | 82 | 1017.2 |
| 20260510044958 | 49 | 15 | 4.3 | 10.4 | 0.00 | 0.00 | 0.00 | 81 | 1017.3 |
| 20260510044458 | 50 | 20 | 2.6 | 10.4 | 0.00 | 0.00 | 0.00 | 82 | 1017.2 |
| 20260510043958 | 50 | 350 | 7.8 | 10.4 | 0.00 | 0.00 | 0.00 | 81 | 1017.1 |
| 20260510043458 | 50 | 5 | 7.0 | 13.0 | 0.00 | 0.00 | 0.00 | 81 | 1017.1 |
| 20260510042958 | 50 | 24 | 3.5 | 13.0 | 0.00 | 0.00 | 0.00 | 81 | 1017.1 |
| 20260510042457 | 50 | 64 | 7.0 | 10.4 | 0.00 | 0.00 | 0.00 | 81 | 1017.0 |
| 20260510041959 | 50 | 51 | 4.3 | 13.0 | 0.00 | 0.00 | 0.00 | 81 | 1017.1 |
| 20260510040958 | 50 | 5 | 7.8 | 11.3 | 0.00 | 0.00 | 0.00 | 81 | 1017.1 |
| 20260510040459 | 50 | 55 | 8.7 | 13.0 | 0.00 | 0.00 | 0.00 | 81 | 1017.1 |
| 20260510035500 | 51 | 64 | 4.3 | 14.8 | 0.00 | 0.00 | 0.00 | 81 | 1017.1 |
| 20260510034958 | 51 | 63 | 13.9 | 14.8 | 0.00 | 0.00 | 0.00 | 81 | 1017.1 |
| 20260510034459 | 51 | 34 | 11.3 | 12.2 | 0.00 | 0.00 | 0.00 | 81 | 1017.3 |
| 20260510033957 | 51 | 355 | 5.2 | 16.5 | 0.00 | 0.00 | 0.00 | 81 | 1017.3 |
| 20260510033459 | 51 | 42 | 12.2 | 16.5 | 0.00 | 0.00 | 0.00 | 81 | 1017.3 |
| 20260510032959 | 51 | 42 | 9.6 | 14.8 | 0.00 | 0.00 | 0.00 | 81 | 1017.3 |
| 20260510032457 | 51 | 36 | 10.4 | 14.8 | 0.00 | 0.00 | 0.00 | 81 | 1017.3 |
| 20260510032000 | 51 | 40 | 12.2 | 16.5 | 0.00 | 0.00 | 0.00 | 81 | 1017.2 |
| 20260510031458 | 51 | 44 | 13.9 | 16.5 | 0.00 | 0.00 | 0.00 | 81 | 1017.2 |
| 20260510030958 | 51 | 72 | 7.0 | 17.4 | 0.00 | 0.00 | 0.00 | 81 | 1017.2 |
| 20260510030457 | 51 | 38 | 13.9 | 16.5 | 0.00 | 0.00 | 0.00 | 81 | 1017.2 |
| 20260510025457 | 52 | 25 | 11.3 | 13.0 | 0.00 | 0.00 | 0.00 | 81 | 1017.2 |
| 20260510024957 | 52 | 21 | 7.8 | 13.0 | 0.00 | 0.00 | 0.00 | 82 | 1017.3 |
| 20260510023958 | 52 | 19 | 7.0 | 13.0 | 0.00 | 0.00 | 0.00 | 82 | 1017.2 |
| 20260510022957 | 52 | 16 | 6.1 | 13.9 | 0.00 | 0.00 | 0.00 | 82 | 1017.3 |
| 20260510022457 | 52 | 17 | 7.8 | 13.9 | 0.00 | 0.00 | 0.00 | 83 | 1017.1 |
| 20260510021957 | 52 | 11 | 11.3 | 12.2 | 0.00 | 0.00 | 0.00 | 83 | 1017.2 |
| 20260510021457 | 52 | 40 | 6.1 | 9.6 | 0.00 | 0.00 | 0.00 | 83 | 1017.2 |
| 20260510020957 | 52 | 11 | 7.8 | 11.3 | 0.00 | 0.00 | 0.00 | 83 | 1017.2 |
| 20260510020457 | 52 | 5 | 8.7 | 13.0 | 0.00 | 0.00 | 0.00 | 83 | 1017.2 |
| 20260510015958 | 52 | 19 | 7.8 | 13.0 | 0.00 | 0.00 | 0.00 | 83 | 1017.1 |
| 20260510015457 | 52 | 360 | 9.6 | 13.0 | 0.00 | 0.00 | 0.00 | 83 | 1017.2 |
| 20260510014957 | 52 | 27 | 10.4 | 14.8 | 0.00 | 0.00 | 0.00 | 83 | 1017.3 |
| 20260510014457 | 52 | 360 | 4.3 | 13.0 | 0.00 | 0.00 | 0.00 | 84 | 1017.2 |
| 20260510013458 | 52 | 31 | 9.6 | 13.0 | 0.00 | 0.00 | 0.00 | 84 | 1017.3 |
| 20260510012458 | 52 | 13 | 6.1 | 13.0 | 0.00 | 0.00 | 0.00 | 85 | 1017.4 |
| 20260510011957 | 52 | 24 | 9.6 | 12.2 | 0.00 | 0.00 | 0.00 | 86 | 1017.4 |
| 20260510011458 | 52 | 13 | 8.7 | 9.6 | 0.00 | 0.00 | 0.00 | 86 | 1017.5 |
| 20260510010956 | 52 | 13 | 8.7 | 8.7 | 0.00 | 0.00 | 0.00 | 86 | 1017.5 |
| 20260510010457 | 52 | 24 | 5.2 | 7.8 | 0.00 | 0.00 | 0.00 | 86 | 1017.5 |
| 20260510010000 | 52 | 5 | 4.3 | 8.7 | 0.00 | 0.00 | 0.00 | 86 | 1017.4 |
| 20260510005000 | 52 | 5 | 5.2 | 8.7 | 0.00 | 0.00 | 0.00 | 86 | 1017.3 |
| 20260510003958 | 52 | 341 | 5.2 | 7.8 | 0.00 | 0.00 | 0.00 | 86 | 1017.3 |
| 20260510003457 | 52 | 13 | 4.3 | 7.8 | 0.00 | 0.00 | 0.00 | 86 | 1017.4 |
| 20260510003000 | 52 | 16 | 3.5 | 9.6 | 0.00 | 0.00 | 0.00 | 86 | 1017.4 |
| 20260510002459 | 52 | 342 | 7.0 | 11.3 | 0.00 | 0.00 | 0.00 | 86 | 1017.4 |
| 20260510001958 | 52 | 360 | 7.0 | 11.3 | 0.00 | 0.00 | 0.00 | 86 | 1017.4 |
| 20260510000959 | 52 | 12 | 2.6 | 10.4 | 0.00 | 0.00 | 0.00 | 86 | 1017.4 |
| 20260510000458 | 52 | 343 | 8.7 | 8.7 | 0.00 | 0.00 | 0.00 | 86 | 1017.5 |
| 20260510000000 | 52 | 5 | 4.3 | 9.6 | 0.00 | 0.00 | 0.00 | 86 | 1017.4 |
| 20260509235457 | 52 | 360 | 7.8 | 11.3 | 0.00 | 0.00 | 0.00 | 86 | 1017.5 |
| 20260509234459 | 52 | 348 | 12.2 | 13.0 | 0.00 | 0.00 | 0.00 | 86 | 1017.5 |
| 20260509233958 | 52 | 340 | 8.7 | 13.0 | 0.00 | 0.00 | 0.00 | 86 | 1017.5 |
| 20260509233457 | 52 | 18 | 11.3 | 13.9 | 0.00 | 0.00 | 0.00 | 85 | 1017.5 |
| 20260509232957 | 52 | 360 | 8.7 | 13.9 | 0.00 | 0.00 | 0.00 | 85 | 1017.5 |
| 20260509232458 | 52 | 16 | 6.1 | 11.3 | 0.00 | 0.00 | 0.00 | 85 | 1017.4 |
| 20260509231958 | 52 | 33 | 7.0 | 11.3 | 0.00 | 0.00 | 0.00 | 85 | 1017.4 |
| 20260509231500 | 52 | 355 | 8.7 | 12.2 | 0.00 | 0.00 | 0.00 | 85 | 1017.6 |
| 20260509230959 | 52 | 22 | 7.8 | 12.2 | 0.00 | 0.00 | 0.00 | 85 | 1017.5 |
| 20260509230500 | 52 | 33 | 8.7 | 12.2 | 0.00 | 0.00 | 0.00 | 85 | 1017.5 |
| 20260509230003 | 52 | 30 | 11.3 | 13.0 | 0.00 | 0.00 | 0.00 | 85 | 1017.5 |
| 20260509225459 | 52 | 355 | 3.5 | 13.9 | 0.00 | 0.00 | 0.00 | 85 | 1017.4 |
| 20260509224957 | 52 | 344 | 10.4 | 14.8 | 0.00 | 0.00 | 0.00 | 85 | 1017.4 |
| 20260509224459 | 52 | 11 | 8.7 | 14.8 | 0.00 | 0.00 | 0.00 | 85 | 1017.3 |
| 20260509223959 | 52 | 341 | 8.7 | 14.8 | 0.00 | 0.00 | 0.00 | 85 | 1017.4 |
| 20260509222959 | 52 | 15 | 7.8 | 13.9 | 0.00 | 0.00 | 0.00 | 85 | 1017.4 |
| 20260509222459 | 52 | 332 | 11.3 | 14.8 | 0.00 | 0.00 | 0.00 | 84 | 1017.6 |
| 20260509221959 | 52 | 24 | 4.3 | 16.5 | 0.00 | 0.00 | 0.00 | 84 | 1017.4 |
| 20260509221459 | 52 | 28 | 9.6 | 16.5 | 0.00 | 0.00 | 0.00 | 84 | 1017.4 |
| 20260509220458 | 52 | 355 | 11.3 | 14.8 | 0.00 | 0.00 | 0.00 | 84 | 1017.4 |
| 20260509215458 | 52 | 5 | 8.7 | 13.0 | 0.00 | 0.00 | 0.00 | 83 | 1017.4 |
| 20260509214957 | 52 | 9 | 10.4 | 13.9 | 0.00 | 0.00 | 0.00 | 83 | 1017.4 |
| 20260509214456 | 52 | 344 | 9.6 | 14.8 | 0.00 | 0.00 | 0.00 | 83 | 1017.3 |